Wetbulb
71.84 71.98 71.91 71.67 72.09 71.88 70.90 70.69 70.88 70.83 70.46 70.47 70.44 70.11 69.40 69.09 68.92 69.73 69.50 68.56 68.64 68.23 67.42 67.58 67.12 66.98 67.07 66.69 66.91 68.11 68.73 68.05 66.80
72.17 71.59 71.77 71.71 71.28 70.66 70.00 69.44 69.57 69.98 70.00 70.04 70.00 68.97 68.08 69.52 69.33 69.26 69.16 68.52 68.43 67.96 67.67 67.19 68.12 68.13 68.66 68.57 67.85 67.66 66.80 66.66 65.87
71.20 71.35 71.19 71.29 71.14 70.26 69.25 68.63 67.99 67.73 68.47 69.10 68.94 67.44 66.94 66.89 67.40 67.48 67.21 68.20 67.92 67.14 66.65 66.76 66.72 66.68 66.87 66.33 66.02 65.68 65.59 65.21 65.16
71.58 70.57 70.43 70.51 70.37 70.55 69.78 68.98 68.25 68.26 67.62 67.22 67.52 66.74 66.24 65.38 65.23 65.59 66.63 67.83 66.88 66.85 65.99 67.27 68.21 67.36 66.18 65.74 65.31 65.51 65.53 65.32 66.27
70.26 68.90 69.35 69.57 69.86 69.68 69.57 69.07 68.86 69.79 69.59 68.35 67.44 66.35 65.81 66.32 67.22 67.29 66.33 68.23 66.96 66.83 66.91 67.38 66.87 66.04 65.85 65.08 65.08 65.63 66.93 66.32 65.11
68.92 66.63 67.69 68.72 68.77 69.16 69.01 69.12 69.52 69.06 68.51 68.17 66.89 65.58 67.19 67.81 68.04 68.32 67.29 68.18 68.51 67.97 66.64 67.11 67.06 66.29 65.27 64.10 66.21 65.71 64.67 64.24 64.14
67.50 65.38 65.80 67.97 67.86 68.18 69.16 69.12 68.10 67.26 68.18 67.71 65.84 68.12 68.31 68.37 68.62 67.89 67.21 67.17 67.45 67.39 65.75 67.17 66.56 65.50 64.61 65.22 65.49 64.19 64.20 63.87 62.68
66.43 66.73 66.86 65.96 64.84 66.32 67.44 67.49 67.36 66.96 66.91 67.33 67.44 67.20 67.67 67.47 66.93 66.27 67.11 67.34 67.40 66.80 66.09 67.13 66.09 64.74 65.18 64.46 63.72 63.70 63.11 62.41 61.97
67.19 67.08 67.36 66.33 65.78 65.68 66.63 65.97 66.44 66.56 66.77 66.22 66.25 65.89 65.54 64.62 65.16 65.27 65.76 66.85 67.06 67.12 67.33 66.77 65.91 65.38 64.69 64.30 63.75 63.49 62.67 61.88 60.87
67.77 67.46 67.60 67.36 65.62 64.32 65.23 65.38 65.34 65.94 65.87 65.24 64.72 64.30 65.16 64.76 65.32 65.30 63.62 65.84 66.26 66.08 66.85 66.79 65.77 65.31 65.05 63.69 63.21 62.62 61.92 61.12 60.30
67.11 66.88 67.25 66.53 66.53 64.40 64.74 64.76 64.54 65.11 65.46 64.66 64.49 64.26 64.38 63.64 63.51 63.85 64.55 64.87 65.65 65.77 65.98 66.56 65.86 65.09 64.71 64.02 63.42 61.93 61.28 60.43 60.35
67.12 66.45 66.09 65.79 66.06 64.56 64.19 65.13 64.59 64.90 65.24 63.93 63.97 63.78 62.32 61.18 61.40 62.95 62.19 64.14 63.22 65.41 65.71 65.75 65.69 65.64 64.83 64.96 63.69 62.08 61.02 60.10 60.32
64.83 66.29 66.01 65.83 65.70 65.09 63.61 63.69 63.31 63.57 63.73 63.44 63.63 62.65 60.33 60.26 60.31 62.28 62.07 62.69 63.71 63.83 64.87 65.22 65.24 65.36 65.17 64.94 63.94 62.44 61.22 60.07 60.12
63.63 65.33 65.56 65.88 64.94 64.15 62.77 62.20 62.55 62.63 62.41 62.55 61.64 60.83 59.91 59.83 60.08 60.80 62.03 62.07 62.83 63.33 63.09 62.68 63.42 64.22 64.70 65.00 64.56 63.03 61.68 60.49 60.01
64.44 63.99 64.47 64.38 64.34 63.72 63.54 62.20 62.69 62.50 62.21 60.84 60.72 59.77 59.23 59.90 59.82 60.90 60.55 61.57 62.26 62.66 62.30 62.36 61.88 61.93 63.88 64.08 64.44 63.57 62.16 61.33 60.38
62.50 62.13 62.52 64.00 62.94 62.70 61.98 60.90 60.28 58.91 60.92 58.31 57.33 57.15 59.89 59.82 59.68 59.98 60.64 59.99 61.02 61.13 61.91 61.99 63.37 63.05 62.75 63.48 63.68 63.79 63.12 61.72 60.93
60.51 60.25 60.92 62.48 62.20 62.03 61.29 60.00 58.49 58.33 57.01 57.35 57.22 54.78 55.54 57.92 58.89 59.61 58.95 59.71 60.69 60.19 60.59 61.57 61.62 62.71 63.35 61.56 62.04 62.94 63.31 63.02 61.99
53.94 54.22 56.63 57.03 57.93 58.37 58.84 59.97 59.12 56.87 55.26 55.16 54.19 52.60 51.93 55.12 57.83 58.16 58.89 59.22 59.60 60.15 60.37 60.01 60.01 60.52 61.53 61.32 60.73 60.39 61.99 62.84 63.15
50.04 51.46 51.74 51.33 53.00 54.05 57.24 59.96 59.31 58.81 55.56 53.93 53.80 51.60 51.44 52.64 51.95 55.99 57.39 58.60 58.59 59.52 60.12 59.67 59.31 59.58 60.10 59.22 58.23 58.54 60.14 62.12 62.89
44.23 45.50 46.66 48.66 50.60 50.21 50.51 53.25 55.78 56.51 55.30 53.98 52.79 51.46 50.87 50.09 48.77 49.50 53.24 56.66 58.09 59.04 59.46 59.41 59.10 58.97 59.70 60.33 59.43 58.21 60.44 62.14 62.56
MSLP
1017.10 1017.32 1017.44 1017.69 1017.67 1017.90 1018.17 1018.38 1018.53 1018.65 1018.88 1018.98 1019.13 1019.31 1019.37 1019.10 1019.02 1019.29 1019.63 1019.74 1020.21 1020.39 1020.45 1020.61 1020.76 1020.86 1020.99 1021.17 1021.19 1021.40 1021.39 1021.49 1021.64
1017.11 1017.36 1017.48 1017.60 1017.68 1017.94 1018.34 1018.68 1018.91 1019.03 1019.17 1019.22 1019.42 1019.64 1019.55 1018.94 1019.26 1019.45 1019.62 1020.15 1020.54 1020.59 1020.70 1020.81 1021.01 1021.08 1021.33 1021.44 1021.70 1021.74 1021.74 1022.01 1022.10
1017.16 1017.34 1017.47 1017.66 1017.85 1018.17 1018.52 1018.78 1018.99 1019.25 1019.37 1019.54 1019.70 1019.87 1019.75 1019.42 1019.48 1019.62 1019.78 1020.50 1020.56 1020.73 1020.96 1021.05 1021.15 1021.31 1021.59 1021.76 1021.96 1022.02 1022.17 1022.41 1022.57
1016.89 1017.23 1017.48 1017.76 1018.10 1018.34 1018.71 1018.84 1018.98 1019.23 1019.50 1019.68 1019.98 1020.02 1020.04 1019.38 1019.54 1019.80 1020.07 1020.67 1020.70 1020.97 1021.15 1021.27 1021.49 1021.71 1022.00 1022.27 1022.34 1022.44 1022.60 1022.78 1023.01
1016.81 1017.26 1017.66 1017.93 1018.17 1018.44 1018.80 1019.03 1019.05 1019.17 1019.48 1019.72 1020.06 1020.25 1020.18 1019.30 1019.74 1019.92 1020.19 1020.72 1020.81 1021.14 1021.40 1021.60 1021.70 1021.93 1022.26 1022.56 1022.61 1022.75 1022.98 1023.11 1023.40
1017.21 1017.57 1017.93 1018.14 1018.30 1018.52 1018.76 1019.05 1019.16 1019.31 1019.63 1019.89 1020.10 1020.27 1019.55 1019.46 1019.93 1020.20 1020.70 1020.86 1020.96 1021.30 1021.51 1021.72 1022.00 1022.26 1022.52 1022.72 1023.10 1023.22 1023.25 1023.52 1023.73
1017.20 1017.57 1018.05 1018.22 1018.25 1018.50 1018.70 1018.98 1019.25 1019.63 1019.42 1019.86 1020.28 1019.49 1019.41 1019.62 1019.85 1020.59 1020.98 1021.08 1021.05 1021.31 1021.58 1021.88 1022.14 1022.47 1022.69 1023.09 1023.27 1023.41 1023.61 1023.70 1024.07
1017.21 1017.74 1018.04 1018.53 1018.42 1018.71 1018.56 1018.93 1018.92 1018.82 1019.06 1019.32 1019.34 1019.61 1019.78 1019.77 1020.17 1020.70 1021.14 1021.37 1021.19 1021.38 1021.63 1022.06 1022.34 1022.59 1022.78 1023.37 1023.51 1023.70 1023.84 1024.12 1024.47
1016.59 1017.16 1017.70 1018.26 1018.69 1018.54 1017.63 1018.23 1018.49 1018.76 1019.12 1019.14 1019.33 1019.77 1019.90 1020.02 1019.85 1020.63 1021.06 1021.39 1021.45 1021.34 1021.72 1022.11 1022.35 1022.59 1022.82 1023.50 1023.82 1023.93 1024.33 1024.56 1024.77
1016.15 1016.50 1017.06 1017.46 1017.71 1017.98 1017.53 1018.04 1018.39 1018.50 1018.79 1019.19 1019.38 1019.50 1019.78 1020.21 1020.39 1020.26 1021.05 1021.30 1021.68 1021.64 1021.69 1021.96 1022.28 1022.48 1022.75 1023.44 1023.79 1024.09 1024.50 1024.73 1025.03
1015.94 1016.23 1016.49 1016.82 1017.27 1017.29 1017.59 1018.13 1018.27 1018.23 1018.62 1019.19 1019.29 1019.40 1019.94 1020.42 1020.52 1020.71 1020.88 1021.40 1021.59 1021.80 1021.92 1021.99 1021.94 1022.36 1022.71 1023.25 1023.71 1024.15 1024.46 1024.85 1025.04
1015.52 1015.78 1016.15 1016.41 1016.88 1017.05 1017.38 1017.94 1018.43 1018.41 1018.54 1019.22 1019.25 1019.45 1020.03 1020.50 1020.70 1020.60 1020.46 1020.99 1021.66 1021.66 1021.90 1022.11 1022.03 1022.01 1022.61 1022.99 1023.42 1023.89 1024.40 1024.79 1024.97
1015.21 1015.36 1015.68 1015.91 1016.54 1016.89 1017.17 1017.70 1018.06 1018.27 1018.65 1018.92 1019.18 1019.39 1019.98 1020.35 1020.51 1020.50 1020.26 1020.81 1021.27 1021.67 1021.72 1021.89 1022.09 1022.00 1022.12 1022.59 1023.12 1023.60 1024.11 1024.62 1024.87
1014.94 1014.77 1015.13 1015.40 1016.03 1016.60 1017.02 1017.64 1017.88 1018.21 1018.44 1018.79 1019.32 1019.62 1019.78 1020.09 1020.36 1020.42 1020.41 1020.56 1021.28 1021.53 1021.74 1021.89 1022.05 1022.32 1022.36 1022.33 1022.73 1023.16 1023.49 1024.35 1024.66
1014.90 1014.58 1014.60 1015.11 1015.66 1016.15 1016.65 1017.11 1017.48 1017.77 1018.15 1018.70 1019.05 1019.60 1019.77 1019.97 1020.04 1020.04 1020.34 1020.61 1020.83 1021.05 1021.18 1021.38 1021.73 1022.06 1022.23 1022.42 1022.52 1022.74 1023.16 1023.44 1024.13
1013.67 1014.39 1014.55 1014.84 1015.22 1015.78 1016.41 1016.97 1017.27 1017.80 1018.11 1018.77 1019.27 1019.72 1019.72 1019.75 1019.82 1019.92 1019.83 1020.30 1020.51 1020.90 1021.03 1021.07 1021.33 1021.56 1021.92 1022.09 1022.40 1022.54 1022.72 1023.24 1023.52
1014.56 1014.25 1014.54 1014.68 1015.14 1015.72 1016.15 1016.60 1017.08 1017.48 1018.09 1018.32 1018.56 1019.15 1019.70 1019.35 1019.41 1019.43 1019.49 1019.52 1019.68 1020.09 1020.48 1020.70 1020.74 1021.07 1021.40 1021.80 1022.04 1022.27 1022.50 1022.64 1023.06
1015.53 1015.08 1014.92 1015.40 1015.49 1015.95 1016.17 1016.36 1016.61 1017.15 1018.08 1018.24 1018.38 1018.58 1018.15 1018.32 1018.54 1018.85 1018.93 1018.93 1019.16 1019.09 1019.49 1019.90 1020.09 1020.30 1020.71 1021.10 1021.39 1021.75 1022.06 1022.34 1022.46
1016.47 1015.97 1015.87 1016.24 1016.17 1016.25 1016.39 1016.61 1016.95 1017.10 1017.81 1018.52 1018.65 1018.80 1018.91 1018.32 1018.16 1018.20 1018.38 1018.62 1018.65 1018.66 1018.86 1019.17 1019.55 1019.66 1019.93 1020.41 1020.64 1021.02 1021.44 1021.71 1021.94
1018.55 1017.65 1017.64 1016.99 1017.41 1017.04 1017.05 1017.29 1017.46 1017.65 1017.99 1018.23 1018.58 1019.00 1019.22 1019.15 1019.04 1018.03 1017.98 1018.17 1018.26 1018.27 1018.29 1018.56 1018.86 1019.10 1019.17 1019.57 1019.92 1020.37 1020.58 1020.76 1021.03
Wind_Speed
10 10 11 9 14 15 15 11 12 13 13 14 15 15 11 9 10 10 9 10 14 13 13 14 14 14 15 14 14 16 15 18 18
11 10 12 11 12 13 13 13 11 11 12 13 13 12 5 9 9 10 9 10 13 13 14 13 14 16 16 16 15 16 16 17 16
12 12 14 13 13 15 15 14 14 12 12 12 12 9 5 6 8 7 6 10 13 12 14 13 13 14 14 12 13 13 15 13 14
12 16 15 14 13 13 13 13 14 12 12 12 10 9 7 7 6 7 8 9 12 13 11 13 17 16 15 13 11 12 13 13 13
12 13 13 12 12 12 12 11 12 12 13 12 10 8 7 8 8 7 7 12 15 14 13 15 14 15 14 11 10 10 14 13 15
12 7 9 10 9 11 11 11 11 10 10 10 10 10 7 7 5 3 10 11 16 14 14 14 15 16 13 10 12 12 12 14 13
11 8 4 8 10 10 11 9 11 9 8 7 9 7 6 6 5 4 8 8 14 15 12 11 16 16 14 8 12 11 12 13 10
8 5 5 2 4 4 7 8 9 10 7 8 8 5 5 4 6 7 10 8 12 14 13 17 15 13 16 11 9 10 11 10 8
10 8 8 11 6 6 10 8 9 10 10 10 9 8 6 4 2 7 7 8 10 14 14 17 16 15 15 12 10 12 9 10 5
9 9 9 9 10 10 8 9 10 11 11 9 10 9 7 6 3 3 7 7 9 8 14 17 15 15 16 11 10 11 8 9 6
10 9 9 9 9 8 9 10 9 10 10 10 9 9 8 6 5 4 5 6 8 10 11 16 16 13 14 13 13 11 8 7 8
12 10 10 10 9 10 10 10 9 8 8 10 11 10 10 6 5 5 4 7 7 10 12 13 15 17 15 15 15 12 10 9 9
9 10 10 11 9 8 9 9 8 9 9 8 9 9 6 6 6 5 5 4 4 6 9 11 12 15 18 17 16 14 12 11 10
8 11 11 12 10 9 10 8 8 9 8 8 7 7 4 5 5 7 6 8 6 3 7 5 8 11 14 18 18 17 17 12 12
12 10 10 10 11 9 8 10 9 8 9 7 8 6 3 5 5 8 5 6 6 7 6 5 7 11 14 16 18 19 17 19 16
12 8 8 12 11 12 12 6 10 5 6 6 3 2 6 8 7 6 7 8 9 7 6 6 5 6 12 13 16 19 19 19 18
5 6 6 11 9 12 11 10 6 5 6 6 5 6 7 8 10 9 8 11 10 10 10 8 10 8 8 10 16 15 20 20 20
8 9 6 4 4 3 6 8 10 7 5 4 2 3 7 9 8 12 10 13 10 11 12 13 11 10 9 9 11 13 17 20 21
12 12 11 9 5 6 2 4 5 5 6 1 1 1 4 5 6 7 11 11 11 12 9 12 12 12 9 10 10 14 16 21 22
13 14 12 11 7 9 9 7 3 2 1 3 3 1 1 1 2 3 6 9 10 10 10 10 10 12 11 9 9 15 18 24 27
Wind_Direction
188 174 168 152 134 127 124 118 122 125 130 129 125 124 132 184 121 107 105 103 105 110 114 110 116 115 115 122 113 103 104 95 94
196 176 155 143 134 129 137 143 144 137 137 133 127 126 156 138 132 137 120 119 128 132 122 122 118 115 100 106 102 102 98 97 94
204 176 162 146 144 149 160 156 152 151 150 145 139 138 173 165 147 140 139 131 140 139 121 128 127 130 114 101 103 96 94 101 113
199 181 165 155 160 162 167 165 159 161 156 154 153 148 190 179 153 160 138 153 144 132 137 136 120 116 111 109 108 112 115 120 102
166 162 153 161 165 171 168 175 168 169 155 152 150 148 189 180 161 155 125 160 147 148 145 133 130 123 115 127 125 129 111 113 106
129 115 167 154 168 170 173 184 185 149 140 149 147 168 188 161 169 144 145 164 143 149 152 149 131 132 125 133 98 118 109 104 90
147 146 189 158 162 173 182 182 165 174 165 161 161 201 174 159 159 150 154 197 157 159 159 147 142 137 123 105 138 115 114 98 89
159 159 150 185 205 201 185 162 177 190 180 167 173 159 157 137 156 131 165 192 177 161 152 145 145 143 125 122 114 116 93 108 117
170 176 175 176 193 213 187 185 181 181 187 176 171 168 174 165 141 121 148 184 184 176 151 153 150 144 129 141 129 112 128 119 122
186 182 182 177 179 189 200 190 189 185 186 184 181 187 172 166 150 137 156 162 170 212 169 164 163 152 140 158 149 133 131 134 167
193 191 181 180 179 186 192 194 196 189 183 191 198 179 168 177 165 154 152 169 181 198 186 179 164 165 159 169 156 156 142 175 192
202 199 192 180 184 185 187 190 193 196 200 201 186 171 163 163 179 180 200 163 208 200 198 199 179 166 177 173 171 171 163 204 200
207 203 199 184 182 179 183 187 188 197 197 191 192 178 159 177 179 217 186 205 223 196 202 206 217 193 182 185 181 178 171 207 208
212 211 203 191 185 182 183 184 184 191 199 188 175 184 175 177 186 201 183 192 192 209 177 212 218 225 218 198 192 187 173 202 214
224 214 209 195 188 183 185 188 196 196 190 190 183 191 176 189 193 203 183 196 197 207 235 208 221 220 220 232 213 197 196 184 206
218 205 207 199 196 186 185 181 180 171 175 153 173 201 219 214 212 206 195 197 199 200 218 232 226 216 211 226 230 224 205 200 202
261 208 208 204 191 191 187 182 172 183 176 202 179 203 206 225 220 214 206 207 200 197 203 215 226 221 209 216 234 228 225 209 208
42 42 64 85 103 155 173 187 183 184 189 196 221 205 226 202 203 221 221 220 214 214 211 209 215 217 222 214 216 216 222 227 223
32 53 50 41 52 71 53 161 184 186 189 120 207 65 333 212 198 215 218 220 220 218 212 217 220 219 212 222 218 200 212 225 230
16 34 31 39 33 50 45 35 48 99 133 166 154 160 144 343 316 178 200 219 223 224 220 216 225 222 221 220 218 211 213 221 230